| time (UTC) | temp F | wind direction | speed MPH | gust MPH | rain 1hr in | rain 24hr in | rain mn in | humidity % | barometer mb |
| 20260503032703 | 58 | 126 | 0.0 | 2.0 | 0.00 | 0.47 | 0.06 | 92 | 1010.7 |
| 20260503032018 | 58 | 117 | 0.0 | 2.0 | 0.00 | 0.47 | 0.06 | 92 | 1010.6 |
| 20260503030903 | 58 | 104 | 1.0 | 5.0 | 0.01 | 0.47 | 0.06 | 91 | 1010.7 |
| 20260503030003 | 58 | 101 | 0.0 | 2.0 | 0.01 | 0.47 | 0.06 | 91 | 1010.6 |
| 20260503025403 | 58 | 106 | 0.0 | 2.0 | 0.01 | 0.47 | 0.06 | 91 | 1010.7 |
| 20260503024503 | 58 | 125 | 0.0 | 2.0 | 0.02 | 0.47 | 0.06 | 91 | 1010.8 |
| 20260503023817 | 58 | 125 | 0.0 | 2.0 | 0.03 | 0.47 | 0.06 | 91 | 1010.9 |
| 20260503022703 | 58 | 115 | 0.0 | 2.0 | 0.05 | 0.47 | 0.06 | 91 | 1011.0 |
| 20260503021803 | 58 | 100 | 2.0 | 5.0 | 0.05 | 0.46 | 0.05 | 91 | 1010.9 |
| 20260503020903 | 58 | 105 | 1.0 | 3.0 | 0.05 | 0.46 | 0.05 | 91 | 1011.1 |
| 20260503020003 | 58 | 115 | 1.0 | 3.0 | 0.05 | 0.46 | 0.05 | 91 | 1011.4 |
| 20260503015618 | 58 | 104 | 1.0 | 5.0 | 0.05 | 0.46 | 0.05 | 91 | 1011.4 |
| 20260503014503 | 58 | 159 | 0.0 | 2.0 | 0.03 | 0.45 | 0.03 | 91 | 1011.7 |
| 20260503013603 | 58 | 167 | 1.0 | 2.0 | 0.02 | 0.43 | 0.02 | 91 | 1011.8 |
| 20260503012918 | 58 | 174 | 1.0 | 2.0 | 0.02 | 0.43 | 0.02 | 91 | 1012.0 |
| 20260503011803 | 58 | 169 | 2.0 | 4.0 | 0.00 | 0.42 | 0.00 | 91 | 1012.1 |
| 20260503010903 | 58 | 171 | 2.0 | 3.0 | 0.00 | 0.42 | 0.00 | 91 | 1012.2 |
| 20260503010003 | 58 | 164 | 2.0 | 3.0 | 0.00 | 0.42 | 0.00 | 91 | 1012.0 |
| 20260503005403 | 58 | 161 | 1.0 | 2.0 | 0.00 | 0.42 | 0.00 | 91 | 1012.0 |
| 20260503004503 | 58 | 156 | 1.0 | 2.0 | 0.00 | 0.42 | 0.00 | 91 | 1011.7 |
| 20260503003603 | 58 | 139 | 0.0 | 2.0 | 0.00 | 0.42 | 0.00 | 91 | 1011.7 |
| 20260503002917 | 58 | 146 | 0.0 | 2.0 | 0.00 | 0.42 | 0.00 | 91 | 1011.6 |
| 20260503001803 | 58 | 162 | 1.0 | 2.0 | 0.00 | 0.42 | 0.00 | 91 | 1011.9 |
| 20260503000903 | 58 | 155 | 1.0 | 2.0 | 0.00 | 0.42 | 0.00 | 91 | 1011.9 |
| 20260503000003 | 58 | 152 | 1.0 | 2.0 | 0.00 | 0.42 | 0.00 | 90 | 1011.9 |
| 20260502235403 | 58 | 155 | 1.0 | 2.0 | 0.00 | 0.42 | 0.00 | 90 | 1011.9 |
| 20260502234503 | 58 | 154 | 1.0 | 2.0 | 0.00 | 0.42 | 0.00 | 90 | 1012.0 |
| 20260502233818 | 58 | 157 | 1.0 | 2.0 | 0.00 | 0.42 | 0.00 | 90 | 1012.0 |
| 20260502232703 | 58 | 161 | 1.0 | 2.0 | 0.00 | 0.42 | 0.00 | 90 | 1012.1 |
| 20260502231803 | 58 | 138 | 1.0 | 2.0 | 0.00 | 0.42 | 0.00 | 90 | 1012.0 |
| 20260502230903 | 59 | 132 | 0.0 | 2.0 | 0.00 | 0.42 | 0.00 | 90 | 1012.1 |
| 20260502230003 | 59 | 142 | 0.0 | 2.0 | 0.00 | 0.42 | 0.00 | 90 | 1012.1 |
| 20260502225403 | 59 | 138 | 0.0 | 2.0 | 0.00 | 0.42 | 0.00 | 90 | 1012.2 |
| 20260502224503 | 59 | 100 | 1.0 | 3.0 | 0.00 | 0.42 | 0.00 | 89 | 1012.3 |
| 20260502223603 | 59 | 82 | 1.0 | 3.0 | 0.00 | 0.42 | 0.00 | 89 | 1012.2 |
| 20260502222703 | 59 | 91 | 1.0 | 3.0 | 0.00 | 0.42 | 0.00 | 89 | 1012.1 |
| 20260502222018 | 58 | 94 | 1.0 | 6.0 | 0.00 | 0.42 | 0.00 | 89 | 1012.2 |
| 20260502220903 | 58 | 92 | 2.0 | 6.0 | 0.00 | 0.42 | 0.00 | 89 | 1012.3 |
| 20260502220004 | 58 | 86 | 3.0 | 7.0 | 0.00 | 0.42 | 0.00 | 88 | 1012.3 |
| 20260502215618 | 58 | 88 | 3.0 | 7.0 | 0.00 | 0.42 | 0.42 | 88 | 1012.4 |
| 20260502214503 | 58 | 90 | 4.0 | 9.0 | 0.00 | 0.42 | 0.42 | 88 | 1012.6 |
| 20260502213603 | 58 | 95 | 5.0 | 11.0 | 0.00 | 0.42 | 0.42 | 87 | 1012.7 |
| 20260502212703 | 58 | 92 | 4.0 | 8.0 | 0.00 | 0.42 | 0.42 | 87 | 1012.6 |
| 20260502211803 | 58 | 86 | 3.0 | 7.0 | 0.01 | 0.42 | 0.42 | 87 | 1012.6 |
| 20260502210903 | 58 | 62 | 3.0 | 7.0 | 0.01 | 0.42 | 0.42 | 87 | 1012.4 |
| 20260502210003 | 58 | 60 | 2.0 | 6.0 | 0.01 | 0.42 | 0.42 | 87 | 1012.4 |
| 20260502205618 | 58 | 61 | 2.0 | 8.0 | 0.02 | 0.42 | 0.42 | 87 | 1012.4 |
| 20260502204717 | 58 | 58 | 4.0 | 8.0 | 0.03 | 0.42 | 0.42 | 87 | 1012.7 |
| 20260502203603 | 58 | 64 | 5.0 | 11.0 | 0.06 | 0.42 | 0.42 | 87 | 1012.9 |
| 20260502202918 | 58 | 60 | 3.0 | 9.0 | 0.08 | 0.42 | 0.42 | 87 | 1013.0 |
| 20260502201803 | 58 | 55 | 4.0 | 9.0 | 0.10 | 0.41 | 0.41 | 87 | 1013.0 |
| 20260502200903 | 59 | 64 | 4.0 | 9.0 | 0.12 | 0.41 | 0.41 | 87 | 1013.2 |
| 20260502200003 | 59 | 65 | 3.0 | 8.0 | 0.13 | 0.41 | 0.41 | 86 | 1013.5 |
| 20260502195618 | 59 | 59 | 2.0 | 8.0 | 0.13 | 0.40 | 0.40 | 87 | 1013.6 |
| 20260502194503 | 59 | 262 | 0.0 | 2.0 | 0.10 | 0.38 | 0.38 | 85 | 1013.4 |
| 20260502193603 | 60 | 262 | 2.0 | 7.0 | 0.09 | 0.36 | 0.36 | 84 | 1013.6 |
| 20260502192703 | 60 | 261 | 2.0 | 7.0 | 0.06 | 0.33 | 0.33 | 82 | 1013.6 |
| 20260502191803 | 62 | 240 | 3.0 | 10.0 | 0.03 | 0.31 | 0.31 | 79 | 1013.9 |
| 20260502191116 | 64 | 207 | 4.0 | 8.0 | 0.02 | 0.29 | 0.29 | 75 | 1014.1 |
| 20260502190003 | 68 | 66 | 1.0 | 4.0 | 0.00 | 0.28 | 0.28 | 69 | 1013.6 |
| 20260502185617 | 68 | 36 | 2.0 | 4.0 | 0.00 | 0.28 | 0.28 | 65 | 1013.3 |
| 20260502184716 | 68 | 14 | 4.0 | 7.0 | 0.00 | 0.28 | 0.28 | 64 | 1013.2 |
| 20260502183603 | 68 | 22 | 5.0 | 8.0 | 0.00 | 0.28 | 0.28 | 64 | 1013.0 |
| 20260502182703 | 68 | 17 | 4.0 | 7.0 | 0.00 | 0.28 | 0.28 | 65 | 1013.1 |
| 20260502181803 | 68 | 22 | 3.0 | 6.0 | 0.00 | 0.28 | 0.28 | 64 | 1013.2 |
| 20260502181118 | 68 | 19 | 3.0 | 6.0 | 0.00 | 0.28 | 0.28 | 65 | 1013.1 |
| 20260502163603 | 70 | 358 | 4.0 | 10.0 | 0.00 | 0.28 | 0.28 | 64 | 1013.7 |
| 20260502162703 | 70 | 358 | 5.0 | 9.0 | 0.00 | 0.28 | 0.28 | 65 | 1013.8 |
| 20260502162018 | 70 | 5 | 4.0 | 8.0 | 0.00 | 0.28 | 0.28 | 64 | 1013.9 |
| 20260502160903 | 70 | 340 | 4.0 | 9.0 | 0.00 | 0.28 | 0.28 | 64 | 1014.1 |
| 20260502152017 | 71 | 3 | 4.0 | 7.0 | 0.00 | 0.28 | 0.28 | 63 | 1014.7 |
| 20260502150903 | 71 | 5 | 4.0 | 7.0 | 0.00 | 0.28 | 0.28 | 63 | 1014.9 |
| 20260502130217 | 70 | 340 | 3.0 | 6.0 | 0.00 | 0.28 | 0.28 | 66 | 1016.7 |
| 20260502123603 | 70 | 285 | 1.0 | 4.0 | 0.00 | 0.28 | 0.28 | 68 | 1016.9 |
| 20260502122703 | 70 | 298 | 2.0 | 6.0 | 0.00 | 0.28 | 0.28 | 68 | 1017.2 |
| 20260502121803 | 69 | 292 | 2.0 | 7.0 | 0.00 | 0.28 | 0.28 | 70 | 1017.3 |
| 20260502120904 | 69 | 284 | 3.0 | 6.0 | 0.00 | 0.28 | 0.28 | 70 | 1017.3 |
| 20260502115403 | 69 | 297 | 2.0 | 5.0 | 0.00 | 0.28 | 0.28 | 72 | 1017.4 |
| 20260502113603 | 69 | 278 | 2.0 | 5.0 | 0.00 | 0.28 | 0.28 | 72 | 1017.7 |
| 20260502112703 | 68 | 333 | 1.0 | 4.0 | 0.00 | 0.28 | 0.28 | 73 | 1017.8 |
| 20260502111803 | 68 | 299 | 1.0 | 3.0 | 0.00 | 0.28 | 0.28 | 76 | 1017.9 |
| 20260502110903 | 68 | 216 | 1.0 | 4.0 | 0.00 | 0.28 | 0.28 | 77 | 1017.9 |
| 20260502110003 | 67 | 266 | 1.0 | 4.0 | 0.00 | 0.28 | 0.28 | 76 | 1017.9 |
| 20260502105403 | 67 | 198 | 1.0 | 3.0 | 0.00 | 0.28 | 0.28 | 80 | 1018.0 |
| 20260502104503 | 67 | 202 | 1.0 | 3.0 | 0.00 | 0.28 | 0.28 | 79 | 1018.1 |
| 20260502103603 | 66 | 197 | 1.0 | 3.0 | 0.00 | 0.28 | 0.28 | 81 | 1018.1 |
| 20260502102703 | 66 | 224 | 0.0 | 2.0 | 0.00 | 0.28 | 0.28 | 80 | 1018.2 |
| 20260502102017 | 66 | 223 | 0.0 | 2.0 | 0.00 | 0.28 | 0.28 | 80 | 1018.2 |
| 20260502100903 | 66 | 203 | 0.0 | 2.0 | 0.00 | 0.28 | 0.28 | 80 | 1018.4 |
| 20260502090903 | 63 | 278 | 1.0 | 4.0 | 0.00 | 0.28 | 0.28 | 85 | 1018.7 |
| 20260502071118 | 60 | 188 | 0.0 | 1.0 | 0.00 | 0.28 | 0.28 | 88 | 1018.6 |
| 20260502070003 | 60 | 182 | 0.0 | 2.0 | 0.00 | 0.28 | 0.28 | 90 | 1018.6 |
| 20260502065403 | 59 | 182 | 0.0 | 2.0 | 0.00 | 0.28 | 0.28 | 89 | 1018.7 |
| 20260502064503 | 60 | 183 | 0.0 | 2.0 | 0.00 | 0.28 | 0.28 | 89 | 1018.6 |
| 20260502063603 | 60 | 179 | 0.0 | 2.0 | 0.00 | 0.28 | 0.28 | 90 | 1018.5 |
| 20260502062917 | 59 | 184 | 1.0 | 2.0 | 0.00 | 0.28 | 0.28 | 91 | 1018.6 |
| 20260502061803 | 58 | 233 | 0.0 | 2.0 | 0.00 | 0.28 | 0.28 | 91 | 1018.6 |
| 20260502060903 | 57 | 287 | 0.0 | 2.0 | 0.00 | 0.28 | 0.28 | 91 | 1018.7 |
| 20260502060217 | 57 | 287 | 0.0 | 2.0 | 0.00 | 0.28 | 0.28 | 90 | 1018.6 |
| 20260502055403 | 57 | 316 | 0.0 | 2.0 | 0.00 | 0.28 | 0.28 | 90 | 1018.5 |
| 20260502054718 | 57 | 329 | 0.0 | 2.0 | 0.01 | 0.28 | 0.28 | 90 | 1018.4 |
| 20260502053603 | 57 | 326 | 0.0 | 2.0 | 0.02 | 0.28 | 0.28 | 90 | 1018.3 |
| 20260502052703 | 57 | 294 | 1.0 | 2.0 | 0.02 | 0.28 | 0.28 | 89 | 1018.2 |
| 20260502051803 | 56 | 283 | 1.0 | 4.0 | 0.25 | 0.28 | 0.28 | 89 | 1018.3 |
| 20260502050903 | 56 | 299 | 1.0 | 2.0 | 0.28 | 0.28 | 0.28 | 88 | 1018.3 |
| 20260502050218 | 57 | 310 | 0.0 | 2.0 | 0.28 | 0.28 | 0.28 | 88 | 1018.3 |
| 20260502045403 | 57 | 299 | 1.0 | 2.0 | 0.28 | 0.28 | 0.28 | 87 | 1018.3 |
| 20260502044504 | 57 | 285 | 0.0 | 2.0 | 0.27 | 0.27 | 0.27 | 87 | 1018.6 |
| 20260502043603 | 57 | 290 | 1.0 | 3.0 | 0.26 | 0.26 | 0.26 | 85 | 1018.7 |
| 20260502042703 | 57 | 279 | 0.0 | 3.0 | 0.26 | 0.26 | 0.26 | 84 | 1018.7 |
| 20260502041803 | 57 | 178 | 1.0 | 2.0 | 0.02 | 0.02 | 0.02 | 82 | 1018.9 |
| 20260502040903 | 57 | 268 | 0.0 | 2.0 | 0.00 | 0.00 | 0.00 | 80 | 1018.8 |
| 20260502040218 | 57 | 283 | 0.0 | 2.0 | 0.00 | 0.00 | 0.00 | 79 | 1018.7 |
| 20260502035403 | 57 | 284 | 0.0 | 2.0 | 0.00 | 0.00 | 0.00 | 79 | 1018.9 |
| 20260502034717 | 56 | 280 | 0.0 | 3.0 | 0.00 | 0.00 | 0.00 | 78 | 1018.7 |
| 20260502033603 | 56 | 277 | 1.0 | 5.0 | 0.00 | 0.00 | 0.00 | 77 | 1018.6 |